Portada
METAR-TAF:

METAR-TAF

Aeroports :

Machala, Equador

latitud: 03-26-07S, longitud: 079-58-40W, altitud: 52 m

Observació

L'informe es va fer fa 38 minuts, a les 19:00 UTC
Vent 8 kt del Oest/Nord-Oest
Temperatura 32°C
Humitat 63%
Pressió 1007 hPa
Visibilitat 10 km o més
Escasses núvols a una alçada de 2000 ft

METAR: SERO 121900Z 29008KT 9999 FEW020 32/24 Q1007

Hora: 14:38 (19:38 UTC)


TAF: manca

Observacions i pronòstics meteorològics de més de 4000 aeroports (METAR i TAF).

Les estacions disponibles són els punts grocs i vermells al mapa.

Posi el ratolí al punt desitjat per veure el nom de l'estació.

Feu clic per veure les observacions i els pronòstics meteorològics.

Per canviar el mapa: feu clic els botons verds amb una creu de color negre per apropar; al botó verd amb un guió per allunyar la imatge; o en les fletxes verdes per a mapes adjacents.


METAR-TAF: